Location: Hodgeman County Ambulance
(38.0844°N, 99.8949°W)
Time: 14:21:48
(UTC+00:00)

Cosmos 1689 Rocket - Pass Details

Date: 27 October 2020
Orbit: 360 x 374 km, 97.5° (Epoch: 03 December)

Event Time Altitude Azimuth Distance (km) Brightness Sun altitude
Rises 12:13:00 0° 179° (S) 2,231 6.1 -10.0°
Reaches altitude 10° 12:15:00 10° 186° (S) 1,382 4.9 -9.6°
Maximum altitude 12:17:50 44° 260° (W) 528 2.3 -9.1°
Drops below altitude 10° 12:20:40 10° 335° (NNW) 1,383 4.5 -8.5°
Sets 12:22:40 0° 342° (NNW) 2,234 5.7 -8.1°
